Вернуться в каталог

STARLINK-34359

АктивенСвязьVLEO
NORAD 64280·PAYLOAD·🇺🇸 United States

Запущен Jun 4, 2025 с Vandenberg Space Force Base

Loading…

Ближайшие Пролёты (ближайшие 24 часа)

TLE

СвежийSource: CelesTrak SupGP

Эпоха: Sep 15, 2026, 03:37 UTC

1 64280C 25120AA  26258.15118056  .00038122  00000+0  11263-2 0  2588
2 64280  53.1587 314.6996 0001170  92.6047 179.5725 15.34371987    11

Отслеживайте STARLINK-34359 в реальном времени с AllMySat

Download on the App Store